Starlink 3541

operational
NORAD ID: 51854 Int'l Des: 2022-022 Owner: SPXS Country: US Constellation: starlink
LEOCIRCULAR

Starlink 3541について

説明を読み込み中...

リアルタイム位置

3D地球を読み込み中...

次回通過

高度履歴

Altitude vs Time

uPlot chart will show altitude changes over time

軌道要素

1 51854U 22022C 25259.24017509 .00001237 00000-0 95814-4 0 9996
2 51854 53.2170 82.2556 0001383 88.9616 271.1535 15.08844943196684
Epoch: Sep 16, 2025 • Age: 6 hours

現在のステータス

高度 558.9 km
速度 7.58 km/s
衛星直下点 -52.56°S, 167.16°W
打ち上げ日 Mar 3, 2022
運用期間 3.5 years
タイプ internet

技術仕様

分類 Payload
質量 297.00 kg
乾燥質量 275.00 kg
総質量 297.00 kg
長さ 0.20 m
直径 2.80 m
スパン 9.00 m
形状 Box + pan
製造者 SPXS
バスタイプ Starlink
フェーズステータス In Orbit
所有者/国 SPXS/US

大規模コンステレーション

Loading constellations...